Regional Weather Roundup
Issued by NWS

Home | Current Version | Previous Version | Text Only | Print | Product List | Glossary Off
Versions: 1 2 3 4 5 6 7 8 9 10 11 12 13 14 15 16 17 18 19 20 21 22 23 24 25 26 27

000
ASUS45 KTFX 270710
RWRMT
MONTANA REGIONAL WEATHER ROUNDUP
NATIONAL WEATHER SERVICE GREAT FALLS MT
100 AM MDT SAT MAY 27 2017

NOTE: "FAIR" INDICATES FEW OR NO CLOUDS BELOW 12000 FEET WITH NO
SIGNIFICANT WEATHER AND/OR OBSTRUCTIONS TO VISIBILITY.

MTZ001>007-043-270800-
WEST OF THE DIVIDE

CITY           SKY/WX    TMP DP  RH WIND       PRES   REMARKS
KALISPELL      CLEAR     47  41  80 NE3       30.00R
MISSOULA       CLOUDY    54  44  69 CALM      30.05R
BUTTE          CLOUDY    44  33  65 E5        30.10R
MULLAN PASS    CLEAR     47  30  51 NW6       30.12R
ANACONDA         N/A     48  34  57 W5        30.08S
DEER LODGE       N/A     46  39  76 CALM      30.10R
EUREKA           N/A     46  39  76 CALM      29.99R
HAMILTON         N/A     52  37  58 CALM      30.07R
RONAN            N/A     54  44  68 CALM      30.06R
$$

MTZ008-052>055-270800-
SOUTHWEST MONTANA

CITY           SKY/WX    TMP DP  RH WIND       PRES   REMARKS
BOZEMAN        CLEAR     42  37  82 SE6       30.08R
DILLON         CLOUDY    43  33  68 SE7       30.09R
ENNIS          CLOUDY    46  36  66 CALM      30.15R
THREE FORKS      N/A     46  40  79 CALM      30.06R
TWIN BRIDGES     N/A     49  32  52 CALM      30.06R
$$

MTZ009-010-012-014-046-048-049-054-270800-
EAST SLOPES AND CENTRAL MONTANA

CITY           SKY/WX    TMP DP  RH WIND       PRES   REMARKS
CUT BANK       PTCLDY    46  36  68 W10       29.98R
GREAT FALLS    MOCLDY    47  38  71 SW10      30.00S
MALMSTROM AFB  CLEAR     46  40  78 SW12      30.00R
HELENA         CLOUDY    48  39  71 CALM      30.04S
CHOTEAU          N/A     48  39  71 SW5       30.02S
CONRAD           N/A     45  44  96 SW8       30.00S
$$

MTZ011-013-016-021-045-047-050-051-270800-
NORTH CENTRAL MONTANA

CITY           SKY/WX    TMP DP  RH WIND       PRES   REMARKS
HAVRE          CLEAR     44  37  76 SW10      29.91S
LEWISTOWN      CLEAR     39  34  82 SE5       30.01S
N BAR RANCH      N/A     41  32  70 W8        30.04S
CHINOOK          N/A     48  37  66 CALM      29.90S
FORT BENTON      N/A     50  37  62 CALM      29.97S
$$

MTZ017>020-022>027-061-062-270800-
NORTHEAST MONTANA

CITY           SKY/WX    TMP DP  RH WIND       PRES   REMARKS
GLASGOW        PTCLDY    46  38  73 W7        29.89S
JORDAN           N/A     42  35  76 W9        29.93S
SIDNEY         CLEAR     50  38  63 W15       29.87S
WOLF POINT     CLEAR     45  37  73 SW8       29.88F
MALTA          CLOUDY    43  39  87 SW7       29.90S
PLENTYWOOD       N/A     48  37  66 CALM      29.84F
POPLAR           N/A     45  36  70 SW6       29.87F
$$

MTZ028>42-056>058-270800-
SOUTHCENTRAL AND SOUTHEAST MONTANA

CITY           SKY/WX    TMP DP  RH WIND       PRES   REMARKS
BAKER          CLEAR     45  36  70 CALM      29.94S
BILLINGS       MOCLDY    50  38  63 SW9       30.01S
LIVINGSTON     CLEAR     39  35  86 W6        30.06R
MILES CITY     PTCLDY    47  31  53 SW7       29.94S
BIG TIMBER     CLOUDY    45  36  70 W14       30.06S
FORSYTH          N/A     54  37  54 SW3       29.96R
LAUREL           N/A     43  34  70 CALM      30.00F
ROUNDUP          N/A     45  36  70 S6        29.92S
$$

REGIONAL REPORTS...DAKOTAS

CITY           SKY/WX    TMP DP  RH WIND       PRES   REMARKS
WILLISTON      CLEAR     52  40  63 W14       29.84S
MINOT          CLEAR     55  39  54 SW12      29.81R
DICKINSON      PTCLDY    41  33  73 W8        29.88R
BEACH            N/A     41  37  87 SW6       29.94S
CROSBY           N/A     50  39  66 W10       29.83R
TIOGA            N/A     48  39  71 W9        29.85S
WATFORD CITY     N/A     46  37  71 SW5       29.86R
BISMARCK       CLOUDY    51  38  60 W5        29.86S
GRAND FORKS    CLOUDY    55  44  66 SW12      29.78R
FARGO          CLOUDY    51  43  74 SW7       29.82S
BUFFALO SD       N/A     48  41  76 W6        29.88S
RAPID CITY     LGT RAIN  50  48  93 W5        29.98F
$$

REGIONAL REPORTS...WYOMING/IDAHO/WASHINGTON

CITY           SKY/WX    TMP DP  RH WIND       PRES   REMARKS
GILLETTE       CLOUDY    47  44  90 SW7       30.01F
SHERIDAN       CLOUDY    43  39  86 CALM      30.01F
BUFFALO WY     CLOUDY    47  38  71 CALM      30.04S
CODY           CLEAR     41  36  82 S3        30.07S
YELLOWSTONE LA   N/A     29  29 100 CALM      30.15S
IDAHO FALLS    MOCLDY    40  40 100 CALM      30.14R
SALMON         CLOUDY    48  39  71 CALM      30.07R
BOISE          CLEAR     57  41  55 E10       30.06S
SPOKANE        CLEAR     60  39  45 SW10      30.01R
$$

REGIONAL REPORTS...ALBERTA

CITY           SKY/WX    TMP DP  RH WIND       PRES   REMARKS
EDMONTON       CLEAR     50  41  71 W7        29.83R
CALGARY        MOCLDY    57  30  35 NW9       29.92R
LETHBRIDGE     MOCLDY    50  39  66 SW9       29.92R
MEDICINE HAT   CLOUDY    52  41  66 SW10      29.85S
WATERTON GATE    N/A     46  32  57 S10         N/A
CARDSTON         N/A     48  34  57 SW9         N/A
MILK RIVER       N/A     48  41  76 NW13        N/A
ONEFOUR          N/A     46  36  66 S2          N/A
$$

REGIONAL REPORTS...SASKATCHEWAN

CITY           SKY/WX    TMP DP  RH WIND       PRES   REMARKS
SWIFT CURRENT  CLOUDY    50  43  76 VRB2      29.83S
REGINA         PTCLDY    45  41  87 W10       29.77S
SASKATOON      CLEAR     41  37  87 NW6       29.78R
CYPRESS HILLS    N/A     48  32  53 W3          N/A
VAL MARIE        N/A     48  41  76 SW10        N/A
ROCKGLEN         N/A     46  39  76 W13         N/A
$$




USA.gov is the U.S. government's official web portal to all federal, state and local government web resources and services.